TimeCDT,TemperatureF,Dew PointF,Humidity,Sea Level PressureIn,VisibilityMPH,Wind Direction,Wind SpeedMPH,Gust SpeedMPH,PrecipitationIn,Events,Conditions,WindDirDegrees,DateUTC
2:56 AM,46.9,45.9,96,29.66,6.0,WSW,16.1,-,0.00,Rain,Light Rain,240,2013-03-11 07:56:00
3:09 AM,44.6,42.8,93,29.65,10.0,WSW,15.0,-,0.00,,Overcast,250,2013-03-11 08:09:00
3:56 AM,41.9,41.0,97,29.65,10.0,West,18.4,23.0,0.00,,Overcast,260,2013-03-11 08:56:00
4:02 AM,42.8,41.0,93,29.63,8.0,West,16.1,-,N/A,,Overcast,260,2013-03-11 09:02:00
4:17 AM,41.0,41.0,100,29.62,5.0,WSW,16.1,-,0.00,Rain,Light Rain,240,2013-03-11 09:17:00
4:56 AM,39.9,38.8,96,29.65,9.0,WSW,12.7,19.6,0.00,,Overcast,250,2013-03-11 09:56:00
5:10 AM,39.2,39.2,100,29.65,2.5,WSW,13.8,-,N/A,,Overcast,250,2013-03-11 10:10:00
5:14 AM,39.2,39.2,100,29.65,1.8,WSW,15.0,-,N/A,,Overcast,250,2013-03-11 10:14:00
5:24 AM,39.2,39.2,100,29.66,0.5,WSW,15.0,-,0.00,Fog-Rain,Light Rain,250,2013-03-11 10:24:00
5:41 AM,39.2,39.2,100,29.66,1.0,WSW,15.0,-,0.00,Rain,Light Rain,250,2013-03-11 10:41:00
5:44 AM,39.2,39.2,100,29.66,1.5,WSW,12.7,-,0.00,Rain,Light Rain,250,2013-03-11 10:44:00
5:56 AM,38.8,38.8,100,29.68,3.0,WSW,12.7,-,0.01,Rain,Light Rain,240,2013-03-11 10:56:00
6:56 AM,36.9,36.9,100,29.69,6.0,WSW,13.8,-,0.00,,Overcast,240,2013-03-11 11:56:00
7:56 AM,36.0,34.9,96,29.68,5.0,WSW,13.8,-,N/A,,Overcast,250,2013-03-11 12:56:00
8:13 AM,35.6,35.6,100,29.66,2.0,WSW,15.0,-,N/A,,Overcast,250,2013-03-11 13:13:00
8:25 AM,35.6,35.6,100,29.66,0.8,WSW,17.3,-,N/A,,Overcast,250,2013-03-11 13:25:00
8:56 AM,34.9,34.9,100,29.69,3.0,WSW,17.3,-,N/A,,Overcast,240,2013-03-11 13:56:00
9:05 AM,35.6,33.8,93,29.67,3.0,WSW,17.3,-,N/A,,Overcast,240,2013-03-11 14:05:00
9:56 AM,34.0,34.0,100,29.69,1.8,WSW,16.1,-,0.00,,Overcast,240,2013-03-11 14:56:00
10:11 AM,33.8,33.8,100,29.67,2.5,WSW,18.4,25.3,0.00,Rain,Light Rain,250,2013-03-11 15:11:00
10:30 AM,33.8,33.8,100,29.66,2.0,WSW,20.7,-,0.00,Rain,Light Rain,240,2013-03-11 15:30:00
10:56 AM,34.0,32.9,96,29.70,2.0,WSW,20.7,26.5,0.00,Rain,Light Rain,240,2013-03-11 15:56:00
11:56 AM,34.0,32.0,92,29.68,5.0,WSW,20.7,27.6,0.00,,Overcast,250,2013-03-11 16:56:00
12:56 PM,34.0,32.0,92,29.68,5.0,WSW,18.4,28.8,0.00,,Overcast,250,2013-03-11 17:56:00
1:56 PM,34.0,32.0,92,29.68,6.0,West,20.7,27.6,N/A,,Overcast,260,2013-03-11 18:56:00
2:38 PM,33.8,33.8,100,29.66,4.0,WSW,18.4,28.8,N/A,,Overcast,240,2013-03-11 19:38:00
2:56 PM,34.0,32.9,96,29.70,4.0,WSW,17.3,26.5,N/A,,Overcast,250,2013-03-11 19:56:00
3:16 PM,33.8,33.8,100,29.68,1.5,WSW,18.4,26.5,N/A,,Overcast,250,2013-03-11 20:16:00
3:56 PM,34.0,32.0,92,29.73,10.0,West,15.0,23.0,0.00,,Overcast,280,2013-03-11 20:56:00
4:29 PM,33.8,32.0,93,29.71,7.0,West,17.3,28.8,N/A,,Overcast,270,2013-03-11 21:29:00
4:56 PM,32.9,31.1,93,29.76,7.0,West,21.9,27.6,N/A,,Overcast,270,2013-03-11 21:56:00
5:56 PM,32.9,30.0,89,29.78,10.0,West,16.1,-,0.00,,Overcast,270,2013-03-11 22:56:00
6:56 PM,32.0,30.0,92,29.83,9.0,West,15.0,-,N/A,,Overcast,270,2013-03-11 23:56:00
7:56 PM,32.0,28.0,85,29.86,10.0,West,18.4,25.3,0.00,,Overcast,270,2013-03-12 00:56:00
8:56 PM,32.0,28.0,85,29.88,10.0,West,13.8,23.0,N/A,,Overcast,280,2013-03-12 01:56:00
9:56 PM,31.1,28.0,88,29.91,10.0,West,11.5,-,N/A,,Overcast,270,2013-03-12 02:56:00
10:56 PM,31.1,27.1,85,29.93,10.0,West,13.8,23.0,N/A,,Overcast,280,2013-03-12 03:56:00
11:56 PM,31.1,27.1,85,29.94,10.0,West,13.8,-,N/A,,Overcast,270,2013-03-12 04:56:00